Погода в Сандате

Россия / Ростовская область     46°15′55″N   41°45′44″E
темп.,
°C
ветер,
м/с
пор.,
м/с
влажн.,
%
обл.,
%
осадки,
мм/ч
давл.,
гПа
погр.,
м
22 апреля, чт
чт2200:00+9юз3386100 0.0 102140
03:00+9з2291100 0.0 102122
06:00+10вюв008695 0.0 102211
09:00+14св2271100 0.0 1023445
12:00+17вюв346248 0.9 10231237
15:00+16ююв4568100 2.2 1022910
18:00+14ююв4776100 0.4 1022369
21:00+12ююз2487100 0.6 1023102
23 апреля, пт
пт2300:00+11зсз2591100 0.6 1023207
03:00+10сз34956 0.8 1023146
06:00+8з34920 0.0 102484
09:00+13зюз44700 0.0 1024774
12:00+16з565448 0.0 10221786
15:00+16зсз4657100 0.1 10211642
18:00+15зсз256529 0.0 1021215
21:00+12юз226797 0.0 102011
24 апреля, сб
сб2400:00+11юз1170100 0.0 101910
03:00+11юз2373100 0.0 101936
06:00+10юз348240 0.2 101886
09:00+15зюз466140 0.2 1019718
12:00+18зюз694859 0.0 10182169
15:00+17з585529 0.0 10171024
18:00+15зсз586827 0.1 1018590
21:00+11з348447 0.1 102057
25 апреля, вс
вс2500:00+9з3584100 0.0 1020105
03:00+8з3781100 0.0 1020169
06:00+6сз368599 0.0 1022188
09:00+10ссз345775 0.0 1022660
12:00+12с3351100 0.0 10211064
15:00+12с3252100 0.0 10211072
18:00+10всв2369100 0.3 1021128
21:00+7ссв3682100 1.4 1020336
26 апреля, пн
пн2600:00+6всв3592100 2.7 1020319
03:00+6св4695100 5.3 1019355
06:00+6всв3795100 1.6 1018358
09:00+7св3595100 3.5 1018353
12:00+7св3594100 2.1 1017373
15:00+7св3495100 6.9 1017321
18:00+8св1193100 0.1 1017167
21:00+7зсз2295100 0.1 101879